This demonstration page uses our WeatherBlox Daily Observations layout. Learn more.

41.55636, -103.73856

Hourly Observations for August 16, 2019

Temp ( °F °C ) Dew Point ( °F °C ) Humidity (%) Winds ( mph kmh ) Pressure ( in mb ) Visibility ( mi km ) Precip ( " mm )
12:58 am 00:58 Clear 72 22.4 56 13.1 56 56 ENE 12 19 29.95 1014 10 16.0934 0 0
1:58 am 01:58 Clear 66 18.8 57 14 74 74 E 9 15 29.98 1015 10 16.0934 0 0
2:58 am 02:58 Clear 65 18.3 56 13.5 74 74 ESE 13 20 29.98 1015 10 16.0934 0 0
3:58 am 03:58 Clear 63 17.1 54 12.3 74 74 SE 10 17 29.99 1016 10 16.0934 0 0
4:58 am 04:58 Clear 62 16.8 54 12.3 75 75 SE 10 17 29.96 1015 10 16.0934 0 0
5:58 am 05:58 Mostly Cloudy 61 16.2 55 12.8 80 80 Calm 29.92 1013 10 16.0934 0 0
6:58 am 06:58 Mostly Clear 63 17.3 56 13.5 79 79 S 13 20 29.87 1012 10 16.0934 0 0
7:58 am 07:58 Mostly Cloudy with Nearby Thunderstorms 62 16.7 55 12.9 78 78 NNE 20 31 29.95 1014 10 16.0934 0 0
8:58 am 08:58 Mostly Cloudy 57 13.8 53 11.9 88 88 E 12 19 29.93 1014 10 16.0934 0 0
9:58 am 09:58 Cloudy 58 14.5 53 11.8 84 84 E 7 11 29.96 1014 10 16.0934 0 0
10:58 am 10:58 Mostly Cloudy 56 13.4 53 11.8 90 90 SE 3 6 29.98 1015 10 16.0934 0 0
11:58 am 11:58 Mostly Cloudy 56 13.3 53 11.4 88 88 N 6 9 29.98 1015 10 16.0934 0 0
12:58 pm 12:58 Mostly Cloudy 57 13.8 53 11.9 88 88 NNE 7 11 29.98 1015 10 16.0934 0 0
1:58 pm 13:58 Mostly Cloudy 59 14.8 54 12.2 85 85 NNE 7 11 30.02 1017 10 16.0934 0 0
2:58 pm 14:58 Mostly Cloudy 60 15.7 54 12.3 80 80 SSE 5 7 30 1016 10 16.0934 0 0
3:58 pm 15:58 Mostly Cloudy 65 18.6 55 12.6 68 68 S 23 37 29.97 1015 10 16.0934 0 0
4:58 pm 16:58 Sunny 70 21.1 56 13.1 60 60 SSW 20 31 29.94 1014 10 16.0934 0 0
5:58 pm 17:58 Sunny 73 22.5 56 13.6 57 57 SSW 10 17 29.91 1013 10 16.0934 0 0
6:58 pm 18:58 Sunny 74 23.5 56 13.3 53 53 SW 10 17 29.88 1012 10 16.0934 0 0
7:58 pm 19:58 Sunny 76 24.7 53 11.8 45 45 Calm 29.85 1011 10 16.0934 0 0
8:58 pm 20:58 Sunny 79 26.1 53 11.8 41 41 SE 7 11 29.84 1010 10 16.0934 0 0
9:58 pm 21:58 Sunny 81 27.4 56 13.1 41 41 SSE 15 24 29.8 1009 10 16.0934 0 0
10:58 pm 22:58 Sunny 80 26.7 54 12.3 41 41 SE 9 15 29.79 1009 10 16.0934 0 0
11:58 pm 23:58 Mostly Cloudy with Nearby Thunderstorms 73 22.5 61 16 67 67 SSW 10 17 29.83 1010 10 16.0934 0 0

Powered by AerisWeather